User: anonymous   Login
Location: Newark
(35.6799°N, 139.7636°E)
Time: 11:12:14
(UTC+00:00)
Language:

A-11 Canister half - Orbit

View from above orbital plane
View from above orbital plane
View from above satellite
View from above satellite

Ground track
Ground track

The orbit data is extracted from the following two-line orbital elements,

1    53U 60009E   19339.85268847 -.00000033 +00000-0 +49731-3 0  9990
2    53 047.2739 139.0971 0097910 225.1557 134.1245 12.17233213644868
Epoch (UTC): 05 December 2019 20:27:52
Eccentricity: 0.0097910
inclination: 47.2739°
perigee height: 1526 km
apogee height: 1683 km
right ascension of ascending node: 139.0971°
argument of perigee: 225.1557°
revolutions per day: 12.17233213
mean anomaly at epoch: 134.1245°
orbit number at epoch: 64486

The dashed part of the orbit path shows where the satellite is in the earth's shadow,  

DLR